Location: Cabeza Gorda
(40.0667°N, 4.9667°W)
Time: 20:03:12
(UTC+00:00)

ATLAS 2AS CENTAUR R/B - Pass Details

Date: 15 January 2026
Orbit: 1050 x 1161 km, 63.7° (Epoch: 10 February)

Event Time Altitude Azimuth Distance (km) Brightness Sun altitude
Exits shadow 05:26:59 12° 346° (NNW) 2,741 4.6 -25.0°
Maximum altitude 05:32:06 27° 40° (NE) 1,914 4.3 -24.1°
Drops below altitude 10° 05:37:39 10° 96° (E) 2,866 6.1 -23.0°
Sets 05:40:46 0° 108° (ESE) 3,825 7.0 -22.4°
